IRIDIUM 144 (43249 NORAD) Tracking and Keplerian Element Data

This shows tracking and keplerian element data for the satellite.

Feedback or suggestion? Click here.




ElementValue
Catalog43249
NameIRIDIUM 144
Epoch Orbit40445
Epoch Day353.99527183
Epoch Year2025
RAAN5.312
Inclination86.3964
Eccentricity0.0002356
Argument of Perigee93.6076
Mean Anonmoly266.5389
Mean Motion14.34218147
Decay Rate9.4E-07
L11 43249U 18030A 25353.99527183 .00000094 00000+0 26490-4 0 9993
L22 43249 86.3964 5.3120 0002356 93.6076 266.5389 14.34218147404459



Live tracking and technical data element details for IRIDIUM 144 (NORAD 43249). IRIDIUM 144 can be tracked NOW for your location showing map with azimuth and elevation plus other details from your city location.







IsCatalogInMostPopularTable: catalog: 43249, numindb: 677
Update: records affected: 1



GetName: 43249 IRIDIUM 144

Hit Count: updated at: Thu, 21 May 2026 11:36:48 GMT